This is the latest recevied weather packets stored in our database for station/object HB9KBJ-8. If no packets are shown the sender has not sent any weather packets the latest 10 day(s).
| Time | Temp. | Humidity | Pressure | Rain* | Wind** | Luminosity | Snow |
|---|---|---|---|---|---|---|---|
| 1777393951 | 17.22° C | 64% | 1015.8 hPa | 0 mm | - | 90 W/m² | - |
| 1777393634 | 17.22° C | 64% | 1015.8 hPa | 0 mm | - | 93 W/m² | - |
| 1777393338 | 17.22° C | 62% | 1015.8 hPa | 0 mm | - | 104 W/m² | - |
| 1777393039 | 17.78° C | 62% | 1015.7 hPa | 0 mm | - | 100 W/m² | - |
| 1777392738 | 17.78° C | 62% | 1015.7 hPa | 0 mm | - | 84 W/m² | - |
| 1777392437 | 17.78° C | 61% | 1015.7 hPa | 0 mm | - | 88 W/m² | - |
| 1777392152 | 18.33° C | 59% | 1015.6 hPa | 0 mm | - | 98 W/m² | - |
| 1777391853 | 18.33° C | 58% | 1015.6 hPa | 0 mm | - | 104 W/m² | - |
| 1777391550 | 18.89° C | 55% | 1015.6 hPa | 0 mm | - | 113 W/m² | - |
| 1777391245 | 18.89° C | 54% | 1015.4 hPa | 0 mm | - | 118 W/m² | - |
| 1777390944 | 18.89° C | 54% | 1015.5 hPa | 0 mm | - | 123 W/m² | - |
| 1777390638 | 18.89° C | 52% | 1015.4 hPa | 0 mm | - | 130 W/m² | - |
| 1777390352 | 18.89° C | 54% | 1015.4 hPa | 0 mm | - | 144 W/m² | - |
| 1777390034 | 18.89° C | 54% | 1015.5 hPa | 0 mm | - | 155 W/m² | - |
| 1777389736 | 18.89° C | 51% | 1015.5 hPa | 0 mm | - | 153 W/m² | - |
| 1777389454 | 18.89° C | 51% | 1015.5 hPa | 0 mm | - | 148 W/m² | - |
| 1777389148 | 19.44° C | 50% | 1015.5 hPa | 0 mm | - | 144 W/m² | - |
| 1777388848 | 19.44° C | 51% | 1015.5 hPa | 0 mm | - | 139 W/m² | - |
| 1777388547 | 18.89° C | 52% | 1015.5 hPa | 0 mm | - | 149 W/m² | - |
| 1777388245 | 18.89° C | 49% | 1015.6 hPa | 0 mm | - | 155 W/m² | - |
| 1777387944 | 18.89° C | 51% | 1015.6 hPa | 0 mm | - | 163 W/m² | - |
| 1777387641 | 18.89° C | 48% | 1015.6 hPa | 0 mm | - | 169 W/m² | - |
| 1777387335 | 18.89° C | 47% | 1015.6 hPa | 0 mm | - | 169 W/m² | - |
| 1777387035 | 19.44° C | 48% | 1015.5 hPa | 0 mm | - | 165 W/m² | - |
| 1777386739 | 19.44° C | 48% | 1015.5 hPa | 0 mm | - | 174 W/m² | - |
* Rain latest hour (hover to see other rain measurements)
** Current wind speed in m/s (hover to see current wind gust speed)